Fes-Sais, Morocco

9:00 PM WEST on July 20, 2017 (GMT +0100)
Fes-Sais

Weather History for GMFF - November, 2012

Change the Weather History Date:

Wednesday, November 7, 2012

  Actual Average Record
Temperature  
Mean Temperature 65 °F -  
Max Temperature 77 °F 64 °F 82 °F (2001)
Min Temperature 53 °F 44 °F 41 °F (1996)
Growing Degree Days 15 (Base 50)    
Moisture  
Dew Point 59 °F    
Average Humidity 77    
Maximum Humidity 100    
Minimum Humidity 61    
Precipitation  
Precipitation 0.00 in 0.12 in - ()
Sea Level Pressure  
Sea Level Pressure 30.02 in    
Wind  
Wind Speed 6 mph ()    
Max Wind Speed 14 mph    
Max Gust Speed -    
Visibility 4.6 miles    
Events Fog , Rain    
Averages and records for this station are not official NWS values.
T = Trace of Precipitation, MM = Missing Value Source: Averaged Metar Reports

Daily Weather History Graph

Daily Weather History Graph

Search for Another Location

Airport or City:

Trip Planner

Search our weather history database for the weather conditions in past years. The results will help you decide how hot, cold, wet, or windy it might be!

Date:

Astronomy

Nov. 07, 2012 Rise Set
Actual Time 6:45 AM WET 5:21 PM WET
Civil Twilight 6:18 AM WET 5:47 PM WET
Nautical Twilight 5:49 AM WET 6:17 PM WET
Astronomical Twilight 5:19 AM WET 6:47 PM WET
Moon No Moon Rise 1:05 PM WET (11/7)
Length of Visible Light 11h 29m
Length of Day
10h 36m
Last Quarter, 45% of the Moon is Illuminated
Nov 7
Last Quarter
Nov 13
New
Nov 20
First Quarter
Nov 28
Full
Dec 6
Last Quarter

Hourly Weather History & Observations

Time (WET) Temp. Dew Point Humidity Pressure Visibility Wind Dir Wind Speed Gust Speed Precip Events Conditions
12:00 AM 63 °F 57 °F 75% 30.02 in 6 mi SW 5.8 mph - - Rain Light Rain
12:00 AM 64.4 °F 57.2 °F 77% 30.04 in 3.7 mi SW 5.8 mph - N/A   Scattered Clouds
1:00 AM 62.6 °F 57.2 °F 82% 30.04 in 3.1 mi West 5.8 mph - N/A   Scattered Clouds
2:00 AM 62.6 °F 57.2 °F 82% 30.04 in - West 5.8 mph - N/A   Mostly Cloudy
3:00 AM 63 °F 58 °F 77% 30.01 in 5 mi SSW 3.5 mph - -   Partly Cloudy
3:00 AM 64.4 °F 59.0 °F 83% 30.04 in 5.0 mi SSW 3.5 mph - N/A   Mostly Cloudy
4:00 AM 62.6 °F 57.2 °F 82% 30.04 in 5.0 mi Variable 3.5 mph - N/A   Mostly Cloudy
5:00 AM 62.6 °F 57.2 °F 82% 30.04 in 3.7 mi Variable 3.5 mph - N/A   Mostly Cloudy
5:08 AM 62.6 °F 60.8 °F 94% 30.04 in 1.9 mi NNE 2.3 mph - N/A   Mostly Cloudy
5:52 AM 62.6 °F 60.8 °F 94% - 1.9 mi ENE 8.1 mph - N/A   Mostly Cloudy
6:00 AM 60 °F 54 °F 76% 30.01 in 2 mi East 4.6 mph - -   Mist
6:00 AM 60.8 °F 53.6 °F 77% 30.04 in 1.9 mi East 4.6 mph - N/A   Scattered Clouds
6:30 AM 60.8 °F 60.8 °F 100% 30.01 in 2.0 mi East 3.5 mph - N/A Fog Fog
7:00 AM 60.8 °F 55.4 °F 82% 30.01 in 0.1 mi East 6.9 mph - N/A Fog Fog
8:00 AM 62.6 °F 57.2 °F 82% 30.01 in 0.1 mi NE 4.6 mph - N/A   Unknown
8:10 AM 62.6 °F 57.2 °F 82% 29.98 in 3.7 mi East 4.6 mph - N/A   Mostly Cloudy
9:00 AM 63 °F 58 °F 78% 29.97 in 0 mi NE 6.9 mph - - Fog Heavy Fog
9:00 AM 62.6 °F 57.2 °F 82% 29.98 in 4.3 mi NE 6.9 mph - N/A   Scattered Clouds
10:00 AM 68.0 °F 59.0 °F 73% 30.01 in 6.2 mi ENE 9.2 mph - N/A   Mostly Cloudy
11:00 AM 73.4 °F 60.8 °F 65% 30.01 in 6.2 mi ENE 11.5 mph - N/A   Mostly Cloudy
12:00 PM 75 °F 64 °F 61% 29.91 in 6 mi ENE 11.5 mph - -   Partly Cloudy
12:00 PM 75.2 °F 62.6 °F 65% 29.98 in 6.2 mi ENE 11.5 mph - N/A   Mostly Cloudy
1:00 PM 75.2 °F 62.6 °F 65% 30.01 in 6.2 mi NNW 13.8 mph - N/A   Mostly Cloudy
2:00 PM 75.2 °F 64.4 °F 69% 30.04 in 6.2 mi NW 11.5 mph - N/A   Mostly Cloudy
3:00 PM 73 °F 64 °F 66% 29.96 in 6 mi NNW 9.2 mph - -   Partly Cloudy
3:00 PM 73.4 °F 64.4 °F 73% 30.04 in 6.2 mi NNW 9.2 mph - N/A   Mostly Cloudy
4:00 PM 73.4 °F 62.6 °F 69% 30.04 in 6.2 mi ESE 9.2 mph - N/A   Mostly Cloudy
5:00 PM 69.8 °F 62.6 °F 78% 30.04 in 6.2 mi North 4.6 mph - N/A   Mostly Cloudy
6:00 PM 68 °F 62 °F 74% 29.98 in 6 mi ENE 6.9 mph - -   Partly Cloudy
6:00 PM 68.0 °F 60.8 °F 78% 30.04 in 6.2 mi ENE 6.9 mph - N/A   Mostly Cloudy
7:00 PM 66.2 °F 60.8 °F 83% 30.06 in 6.2 mi ENE 6.9 mph - N/A   Mostly Cloudy
8:00 PM 64.4 °F 57.2 °F 77% 30.06 in 6.2 mi East 5.8 mph - N/A   Mostly Cloudy
9:00 PM 64 °F 56 °F 70% 30.03 in 6 mi ENE 5.8 mph - -   Partly Cloudy
9:00 PM 62.6 °F 55.4 °F 77% 30.04 in 6.2 mi ENE 4.6 mph - N/A   Mostly Cloudy
10:00 PM 62.6 °F 55.4 °F 77% 30.01 in 6.2 mi ENE 8.1 mph - N/A   Mostly Cloudy
11:00 PM 64.4 °F 57.2 °F 77% 29.98 in 6.2 mi East 10.4 mph - N/A   Mostly Cloudy